Location: Ellerstadt
(49.4644°N, 8.2615°E)
Time: 11:42:09
(UTC+00:00)

Cosmos 2360 Rocket - Pass Details

Date: 03 March 2021
Orbit: 832 x 846 km, 71.0° (Epoch: 13 April)

Event Time Altitude Azimuth Distance (km) Brightness Sun altitude
Rises 18:37:27 0° 197° (SSW) 3,376 5.5 -14.5°
Reaches altitude 10° 18:39:53 10° 195° (SSW) 2,448 4.7 -14.9°
Maximum altitude 18:45:28 68° 114° (ESE) 908 2.1 -15.8°
Drops below altitude 10° 18:51:05 10° 33° (NNE) 2,474 4.4 -16.7°
Sets 18:53:34 0° 31° (NNE) 3,415 5.2 -17.0°
